TimePST,TemperatureF,Dew PointF,Humidity,Sea Level PressureIn,VisibilityMPH,Wind Direction,Wind SpeedMPH,Gust SpeedMPH,PrecipitationIn,Events,Conditions,WindDirDegrees,DateUTC
12:52 AM,37.0,28.9,73,29.91,10.0,ENE,3.5,-,N/A,,Clear,60,2013-02-07 08:52:00
1:52 AM,36.0,28.9,76,29.91,10.0,Variable,3.5,-,N/A,,Partly Cloudy,0,2013-02-07 09:52:00
2:52 AM,35.1,28.9,78,29.89,10.0,North,6.9,-,N/A,,Overcast,360,2013-02-07 10:52:00
3:52 AM,34.0,28.9,82,29.89,10.0,NNW,5.8,-,N/A,,Overcast,340,2013-02-07 11:52:00
4:52 AM,33.1,28.0,82,29.90,10.0,North,4.6,-,N/A,,Mostly Cloudy,10,2013-02-07 12:52:00
5:52 AM,33.1,28.9,85,29.90,10.0,East,3.5,-,N/A,,Scattered Clouds,80,2013-02-07 13:52:00
6:52 AM,32.0,28.0,85,29.91,10.0,WSW,4.6,-,N/A,,Partly Cloudy,240,2013-02-07 14:52:00
7:52 AM,33.1,28.9,85,29.94,10.0,Calm,Calm,-,N/A,,Overcast,0,2013-02-07 15:52:00
8:52 AM,36.0,30.9,82,29.95,10.0,Calm,Calm,-,N/A,,Partly Cloudy,0,2013-02-07 16:52:00
9:52 AM,39.0,30.9,73,29.96,10.0,Calm,Calm,-,N/A,,Clear,0,2013-02-07 17:52:00
10:52 AM,42.1,32.0,67,29.97,10.0,WSW,6.9,-,N/A,,Clear,240,2013-02-07 18:52:00
11:52 AM,45.0,32.0,60,29.96,10.0,Variable,3.5,-,N/A,,Clear,0,2013-02-07 19:52:00
12:52 PM,46.0,30.0,54,29.96,10.0,West,3.5,-,N/A,,Clear,260,2013-02-07 20:52:00
1:52 PM,46.9,30.0,52,29.95,10.0,Calm,Calm,-,N/A,,Mostly Cloudy,0,2013-02-07 21:52:00
2:52 PM,48.0,28.0,46,29.96,10.0,Calm,Calm,-,N/A,,Clear,0,2013-02-07 22:52:00
3:52 PM,44.1,28.9,55,29.98,10.0,North,5.8,-,N/A,,Mostly Cloudy,350,2013-02-07 23:52:00
4:52 PM,42.1,28.0,58,29.99,10.0,NNE,3.5,-,N/A,,Clear,30,2013-02-08 00:52:00
5:52 PM,41.0,28.0,60,30.00,10.0,Calm,Calm,-,N/A,,Clear,0,2013-02-08 01:52:00
6:52 PM,35.1,28.0,76,30.02,10.0,North,5.8,-,N/A,,Clear,350,2013-02-08 02:52:00
7:52 PM,33.1,27.0,78,30.04,10.0,NNE,3.5,-,N/A,,Clear,20,2013-02-08 03:52:00
8:52 PM,32.0,27.0,82,30.05,10.0,North,5.8,-,N/A,,Mostly Cloudy,10,2013-02-08 04:52:00
9:52 PM,34.0,28.9,82,30.06,10.0,North,4.6,-,N/A,,Overcast,350,2013-02-08 05:52:00
10:52 PM,32.0,28.0,85,30.07,10.0,NNE,3.5,-,N/A,,Partly Cloudy,20,2013-02-08 06:52:00
11:52 PM,30.9,26.1,82,30.08,10.0,NNW,5.8,-,N/A,,Clear,340,2013-02-08 07:52:00